TIANZHOU-3 (49222 NORAD) Tracking and Keplerian Element Data

This shows tracking and keplerian element data for the satellite.

Feedback or suggestion? Click here.




ElementValue
Catalog49222
NameTIANZHOU-3
Epoch Orbit2822
Epoch Day299.44222608
Epoch Year2021
RAAN202.6627
Inclination41.4704
Eccentricity0.0006502
Argument of Perigee264.0665
Mean Anonmoly259.2901
Mean Motion15.60834714
Decay Rate0.00018274
L11 49222U 21085A 21299.44222608 .00018274 00000-0 21607-3 0 9997
L22 49222 41.4704 202.6627 0006502 264.0665 259.2901 15.60834714 28229

Live tracking and technical data element details for TIANZHOU-3 (NORAD 49222). TIANZHOU-3 can be tracked NOW for your location showing map with azimuth and elevation plus other details from your city location.

Track the satellite on the map from your city or location and see movement details for azimuth, elevation, latitude, longitude, range, height, and movement on the map or in text.







IsCatalogInMostPopularTable: catalog: 49222, numindb: 13
Update: records affected: 1



GetName: 49222 TIANZHOU-3

Hit Count: updated at: Thu, 28 Oct 2021 11:48:11 GMT